OBJECT PU (43870 NORAD) Tracking and Keplerian Element Data

This shows tracking and keplerian element data for the satellite.

Feedback or suggestion? Click here.




ElementValue
Catalog43870
NameOBJECT PU
Epoch Orbit462
Epoch Day20.43657433
Epoch Year2019
RAAN15.9905
Inclination51.6443
Eccentricity0.0003508
Argument of Perigee291.3111
Mean Anonmoly68.7508
Mean Motion15.5428567
Decay Rate1.981E-05
L11 43870U 98067PU 19020.43657433 .00001981 00000-0 36966-4 0 9992
L22 43870 51.6443 15.9905 0003508 291.3111 68.7508 15.54285670 4629

Live tracking and technical data element details for OBJECT PU (NORAD 43870). OBJECT PU can be tracked NOW for your location showing map with azimuth and elevation plus other details from your city location.

Track the satellite on the map from your city or location and see movement details for azimuth, elevation, latitude, longitude, range, height, and movement on the map or in text.







IsCatalogInMostPopularTable: catalog: 43870, numindb: 22
Update: records affected: 1



GetName: 43870 OBJECT PU

Hit Count: updated at: Wed, 23 Jan 2019 02:41:54 GMT